sat.trackr.live / text

‹ back to catalog

STARLINK-30605

NORAD 58101 · 2023-161E

PAYLOAD ACTIVE UNKNOWN

§ Identity

Operator
Country
US
Launch date
2023-10-21
Launch site
AFWTR
Launch vehicle
Mass (kg)
RCS (m²)

Purposes: comms

External: N2YO · Heavens-Above · Gunter

§ Orbital elements

Epoch: 2026-05-24T10:59:02.407200Z

Period
94.11 min
Inclination
53.1593°
Eccentricity
0.0001128
Mean motion
15.30191731 rev/d
Perigee alt
474.5 km
Apogee alt
476.0 km
Semi-major
6,853.4 km
B*
1.9634e-6
RAAN
173.4845°
Arg perigee
92.7598°
Mean anomaly
267.3532°
Rev number
14,602

§ Raw data

STARLINK-306051 58101U 23161E   26144.45766675 -.00000301  00000+0  19634-5 0  99932 58101  53.1593 173.4845 0001128  92.7598 267.3532 15.30191731146029

JSON: /api/v1/satellites/58101 · /tle

For live sub-satellite position, see the globe view (requires WebGL).

§ Visibility from observer

Set your observer location to see the next 7 days of passes ≥ 10°. The values pass through the URL so the page stays shareable.

No JS? Fill the form by hand. The geolocation button needs JavaScript.